Starlink 32265

operational
NORAD ID: 60415 Int'l Des: 2024-141 Owner: SPXS Country: US Constellation: starlink
LEOCIRCULAR

Über Starlink 32265

Beschreibung wird geladen...

Live-Position

3D-Globus wird geladen...

Nächste Überflüge

Höhenverlauf

Altitude vs Time

uPlot chart will show altitude changes over time

Zweizeiliger Elementsatz

1 60415U 24141T 25306.48590681 -.00002725 00000-0 -79844-4 0 9999
2 60415 53.1585 113.5422 0001138 81.3023 278.8107 15.30228440 70103
Epoch: 2. Nov. 2025 • Age: 27 hours

Aktueller Status

Höhe 475.8 km
Geschwindigkeit 7.63 km/s
Subsatellitenpunkt 2.07°N, 17.35°E
Startdatum 10. Aug. 2024
Alter 1.2 years
Typ internet

Technische Details

Klassifizierung Payload
Masse 730.00 kg
Trockenmasse 700.00 kg
Gesamtmasse 730.00 kg
Länge 0.30 m
Durchmesser 4.10 m
Spannweite 29.00 m
Form Box + pan
Hersteller SPXS
Bus-Typ Starlink V2M
Phasenstatus In Orbit
Besitzer/Staat SPXS/US

Große Konstellationen

Loading constellations...